Regional Weather Roundup
Issued by NWS Grand Forks, ND

Home | Current Version | Previous Version | Text Only | Print | Product List | Glossary Off
Versions: 1 2 3 4 5 6 7 8 9 10 11 12 13 14 15 16 17 18 19 20 21 22 23 24 25 26 27 28 29 30 31 32 33 34 35 36 37 38 39 40 41 42 43 44 45 46 47 48 49 50

000
ASUS43 KFGF 300510
RWRFGF
PRAIRIE TO PINES  WEATHER ROUNDUP
NATIONAL WEATHER SERVICE EASTERN NORTH DAKOTA/GRAND FORKS ND
1200 AM CDT SAT MAY 30 2015

 **SATELLITE DATA USED TO AUGMENT SKY COVER AT AUTOMATED STATIONS**
 *****  WEATHER ACROSS EASTERN NORTH DAKOTA  *****

CITY           SKY/WX    TMP DP  RH WIND       PRES   REMARKS
GRAND FORKS    CLEAR     40  30  67 N12       30.32R
GRAND FRKS AFB CLEAR     39  27  62 N17       30.33R
GRAND FRKS NWS   N/A     37 N/A N/A N5          N/A
DEVILS LAKE    CLEAR     39  25  56 NE13      30.33S
FARGO          MOCLDY    45  34  65 N17       30.27R
WAHPETON ARPT  CLOUDY    45  34  65 N16       30.23S
$$

 ***** WEATHER ACROSS CENTRAL AND WESTERN NORTH DAKOTA  *****

CITY           SKY/WX    TMP DP  RH WIND       PRES   REMARKS
BISMARCK       CLEAR     47  34  60 NW7       30.30S
MINOT          CLEAR     43  33  68 NE10      30.31R
JAMESTOWN      CLEAR     44  34  67 NE13      30.29R
MINOT AFB      NOT AVBL
GARRISON         N/A     43  36  76 NE5       30.30S
WILLISTON      CLEAR     47  32  56 NE6       30.29S
DICKINSON      CLEAR     41  33  73 SE6       30.28S
HETTINGER      CLEAR     39  34  82 CALM      30.30S
$$

 *****  OTHER AIRPORT OBSERVATIONS IN OUR AREA  *****

CITY           SKY/WX    TMP DP  RH WIND       PRES   REMARKS
WALHALLA       FAIR      37  25  60 MISG      30.37R
GRAFTON AIRPOR FAIR      39  28  65 N14       30.35R
VALLEY CITY AR MIX PCPN  43  32  65 N16G23    30.29R
CANDO          FAIR      37  27  65 NE9       30.35S
CAVALIER APRT  FAIR      39  27  60 N8        30.36R
GWINNER        NOT AVBL
SHEYENNE NWR     N/A     45  35  69 N5        29.95S
ROLLA          FAIR      34  32  93 NE6       30.36S
 ***** THE ABOVE OBSERVATIONS ARE NON NWS ARE NOT QUALITY
       CONTROLLED AND MAY MIS-REPORT RAIN FOR SNOW...
$$

  *****  WEATHER ACROSS NORTHERN MINNESOTA  *****

CITY           SKY/WX    TMP DP  RH WIND       PRES   REMARKS
FLAG ISLAND    CLOUDY    45  32  61 N23       30.26R
WARROAD        CLEAR     37  32  81 NW15      30.28R
ROSEAU         CLEAR     39  30  70 N13       30.29R
HALLOCK        CLEAR     37  27  65 N9        30.34R
THF RVR FALLS  CLEAR     39  28  65 N16G22    30.29R
BAUDETTE       CLOUDY    45  32  60 N17       30.22R
WASKISH        MOCLDY    45  37  76 NW12      30.22R
CROOKSTON      CLEAR     39  30  70 N14       30.31R
STEPHEN NDAWN    N/A     37  28  70 N16         N/A
GREENBUSH NDAW   N/A     37  30  75 N13         N/A
$$
  *****  WEATHER ACROSS CENTRAL AND WEST MINNESOTA  *****

CITY           SKY/WX    TMP DP  RH WIND       PRES   REMARKS
FOSSTON        PTCLDY    37  30  75 N15       30.27R
BEMIDJI        CLEAR     44  34  68 N13       30.21R
PARK RAPIDS    PTCLDY    48  35  60 N14G21    30.19R
ELBOW LAKE     FAIR      47  40  76 N13       30.19R
WADENA         PTCLDY    46  37  71 N14       30.17S
DETROIT LAKES  PTCLDY    45  36  70 N10G20    30.24R
MOORHEAD       MOCLDY    45  36  70 N15       30.27R
FERGUS FALLS   MOCLDY    46  36  66 N12       30.22R
MORRIS MN      PTCLDY    48  43  81 NW12      30.18R
STAPLES        PTCLDY    46  39  76 N7        30.17R
$$
  *****  WEATHER ELSEWHERE ACROSS MINNESOTA  *****

CITY           SKY/WX    TMP DP  RH WIND       PRES   REMARKS
DULUTH         CLOUDY    48  40  73 N8        30.10R
INTRNTL FALLS  CLEAR     40  33  76 NW7       30.18R
ELY            NOT AVBL
CLOQUET        CLOUDY    46  39  76 NW6       30.12R
WHEATON        MOCLDY    45  37  76 NW16G23   30.24R
BRAINERD       PTCLDY    49  39  68 N13       30.15R
HIBBING        CLOUDY    47  37  68 N13       30.14R
ALEXANDRIA     FAIR      49  42  77 N14       30.17R
SAINT CLOUD    PTCLDY    50  43  77 N10G20    30.11R
MINNEAPOLIS    CLOUDY    54  50  86 N14       30.06R
$$

  *****  WEATHER ACROSS SOUTH DAKOTA  *****

CITY           SKY/WX    TMP DP  RH WIND       PRES   REMARKS
SIOUX FALLS    MOCLDY    48  43  82 N17G23    30.14S
BROOKINGS      MOCLDY    46  41  81 N15       30.18R
WATERTOWN      PTCLDY    44  38  79 N16G24    30.19S
HURON          PTCLDY    43  39  86 N8        30.22R
SISSETON         N/A     47  39  74 N17       30.22R
ABERDEEN       MOCLDY    48  38  68 NE13      30.25R
MITCHELL       CLOUDY    50  42  74 N17       30.21S
PIERRE         PTCLDY    45  39  79 N9        30.26R
MOBRIDGE       CLEAR     41  38  89 N7        30.26R
RAPID CITY     CLEAR     41  36  82 CALM      30.30R
$$

  *****  SOME WEATHER IN NEARBY STATES *****

CITY           SKY/WX    TMP DP  RH WIND       PRES   REMARKS
GLASGOW MT     CLEAR     48  34  58 E10       30.23F
GREAT FALLS MT CLOUDY    57  47  69 SE12      30.07S
CHEYENNE WY    PTCLDY    44  42  93 CALM      30.33F
SCOTTSBLUFF NE CLOUDY    47  46  97 CALM      30.30S
OMAHA NE       CLOUDY    55  51  86 N20G29    30.06R
DES MOINES IA  LGT RAIN  64  61  90 N15       29.97R
DAVENPORT IA   CLOUDY    68  62  81 W10       29.96S
CHICAGO IL     CLOUDY    73  66  78 SW10      29.94R
EAU CLAIRE WI  LGT RAIN  58  55  90 N9        29.98R
LA CROSSE WI   CLOUDY    67  64  90 SE3       29.90S
$$

  *****  SOME NATIONAL WEATHER *****

CITY           SKY/WX    TMP DP  RH WIND       PRES   REMARKS
LA GUARDIA NY  MOCLDY    66  60  81 CALM      30.22S
RALEIGH NC     PTCLDY    71  64  78 S6        30.20F
ATLANTA GA     PTCLDY    71  60  68 CALM      30.16F
NEW ORLEANS LA MOCLDY    77  69  76 SE5       30.05S
OKLAHOMA CITY  PTCLDY    66  64  93 SW3       30.00R
ALBUQUERQUE NM PTCLDY    71  30  21 NE5       30.17R
SALT LAKE CITY MOCLDY    64  45  49 S3        30.12R
LOS ANGELES CA CLOUDY    58  57  97 W6        29.93R
BOISE ID       MOCLDY    74  38  27 SE9       29.95S
SEATTLE WA     MOCLDY    62  50  64 S6        29.93R
$$

*** WEATHER ACROSS MANITOBA...SASKATCHEWAN AND ONTARIO ***
                ***ONTARIO***

CITY           SKY/WX    TMP DP  RH WIND       PRES   REMARKS
GERALDTON      MOCLDY    41  39  93 N7        30.02R
THUNDER BAY    CLOUDY    54  46  76 NW7       30.03R
SIOUX LOOKOUT  CLOUDY    37  30  75 N12G18    30.19R
TORONTO        PTCLDY    63  52  67 S3        30.00F
BIG TROUT LK   LGT SNOW  32  32 100 NE8       30.14  WCI  25
PICKLE LAKE    NOT AVBL
DRYDEN         CLOUDY    36  32  87 N9G18     30.21R
KENORA         MOCLDY    36  27  69 N12G18    30.26R
$$
                *** MANITOBA***

CITY           SKY/WX    TMP DP  RH WIND       PRES   REMARKS
BRANDON        CLEAR     34  25  69 NE8       30.39S
DAUPHIN        CLEAR     34  28  80 W3        30.42S
ISLAND LAKE    FLURRIES  30  27  86 N12G22    30.36S WCI  21
PILOT MOUND      N/A     36  28  75 N7          N/A
THE PAS        CLEAR     28  23  80 SE2       30.43R
THOMPSON       FLURRIES  30  27  86 CALM      30.41R
WINNIPEG       CLEAR     36  23  60 N13G20    30.39R
LYNN LAKE      CLEAR     30  23  74 SE3       30.36F
CHURCHILL      CLOUDY    28  21  74 SW6       30.36F WCI  22
GILLAM         CLOUDY    28  21  74 N5        30.38S WCI  23
$$
                ***SASKATCHEWAN***

CITY           SKY/WX    TMP DP  RH WIND       PRES   REMARKS
ESTEVAN        NOT AVBL
KINDERSLEY     MOCLDY    50  25  37 E22G28    30.24S
LLOYDMINSTER   CLOUDY    48  28  46 E10       30.25F
PRINCE ALBERT  PTCLDY    43  25  49 SE10      30.35R
REGINA         PTCLDY    43  25  49 NE8       30.34S
YORKTON        CLEAR     36  27  69 E6        30.40R
N. BATTLEFORD  PTCLDY    46  28  49 SE12      30.31S
LA RONGE       CLEAR     32  25  74 CALM      30.37F
SASKATOON      MOCLDY    46  25  42 SE14      30.34S
SWIFT CURRENT  CLOUDY    48  25  40 E16G22    30.24F
$$
NOTE: THESE ARE AUTOMATED STATIONS WITH LIMITED QUALITY CONTROL
      "FAIR" INDICATES FEW OR NO CLOUDS BELOW 12,000 FEET WITH NO
      SIGNIFICANT WEATHER AND/OR OBSTRUCTIONS TO VISIBILITY.
      SKY/WX - SKY CONDITION AND SIGNIFICANT WEATHER.
      TMP - AIR TEMPERATURE.    DP   - DEWPOINT TEMPERATURE.
      RH  - RELATIVE HUMIDITY.  PRES - PRESSURE.
      HX  - HEAT INDEX.         WCI  - WIND CHILL INDEX.
$



USA.gov is the U.S. government's official web portal to all federal, state and local government web resources and services.